Location: ???? ???? ?????
(31.2680°N, 31.7283°E)
Time: 09:15:16
(UTC+00:00)

CARTOSAT-1 - Pass Details

Date: 13 July 2020
Orbit: 617 x 618 km, 97.8° (Epoch: 08 August)

Event Time Altitude Azimuth Distance (km) Brightness Sun altitude
Exits shadow 19:32:35 49° 18° (NNE) 794 4.2 -26.5°
Drops below altitude 10° 19:35:54 10° 355° (N) 1,984 6.9 -26.9°
Sets 19:38:06 0° 352° (N) 2,893 7.9 -27.2°
